Terug naar catalogus

STARLINK-11489

ActiefCommunicatieVLEO
NORAD 62271·PAYLOAD·🇺🇸 United States

Gelanceerd Dec 8, 2024 vanaf Cape Canaveral Space Force Station

Loading…

Volgende Passages (komende 24 uur)

TLE

VersSource: CelesTrak SupGP

Epoch: Sep 14, 2026, 20:55 UTC

1 62271C 24237E   26257.87201389  .00018654  00000+0  14480-3 0  2576
2 62271  43.0005 356.8426 0001692 279.1137 291.5385 15.70843587    16

Volg STARLINK-11489 in realtime met AllMySat

Download on the App Store